Location: Bas Lanzent
(48.1360°N, 3.5871°W)
Time: 21:34:01
(UTC+00:00)

Cosmos 2100 Rocket - Pass Details

Date: 18 February 2020
Orbit: 955 x 1002 km, 82.9° (Epoch: 29 March)

Event Time Altitude Azimuth Distance (km) Brightness Sun altitude
Rises 05:18:22 0° 351° (N) 3,690 7.0 -20.4°
Reaches altitude 10° 05:20:55 10° 353° (N) 2,732 6.3 -20.0°
Maximum altitude 05:27:11 78° 80° (E) 992 4.1 -18.9°
Drops below altitude 10° 05:33:20 10° 167° (SSE) 2,686 6.4 -17.9°
Sets 05:35:49 0° 169° (S) 3,624 7.1 -17.5°
